Regional Weather Roundup
Issued by NWS Sterling, VA

Home | Current Version | Previous Version | Graphics & Text | Print | Product List | Glossary On
Versions: 1 2 3 4 5 6 7 8 9 10 11 12 13 14 15 16 17 18 19 20 21 22 23 24 25 26 27
000
ASUS41 KLWX 230310
RWRLWX

REGIONAL WEATHER ROUNDUP
NATIONAL WEATHER SERVICE BALTIMORE MD/WASHINGTON DC
1100 PM EDT FRI JUL 22 2016

Note: "FAIR" indicates few or no clouds below 12,000 feet
with no significant weather and/or obstructions to visibility.
 TC=TEMPERATURE CELSIUS

 * =Non NWS site. Station does not report precipitation (e.g. rain,
    snow, etc.), thunder, or fog.

DCZ001-MDZ009-015-VAZ040>042-051-053>054-230400-
WASHINGTON METRO

CITY           SKY/WX    TMP DP  RH WIND       PRES   REMARKS
WASHINGTON NAT FAIR      85  71  63 SW6       29.93R HX  90
DULLES         FAIR      80  71  74 S5        29.94R
ANDREWS AFB    CLEAR     81  70  69 SW8       29.93R
FT BELVOIR     FAIR      77  71  83 S2        29.93R
QUANTICO       FAIR      83  70  64 W7        29.94S
COLLEGE PARK*  FAIR      84  70  61 CALM      29.91S
LEESBURG*      FAIR      81  77  89 SW3       29.95S
MANASSAS*      FAIR      77  75  94 CALM      29.94R
GAITHERSBURG*  CLEAR     81  70  69 CALM      29.98R

$$

MDZ006>007-011-014-230400-
BALTIMORE METRO

CITY           SKY/WX    TMP DP  RH WIND       PRES   REMARKS
BWI AIRPORT    PTCLDY    84  71  65 W8        29.90S
MD SCIENCE CTR   N/A     86  69  56 MISG      29.90S HX  90
MARTIN STATE   CLEAR     84  73  70 SW3       29.91R HX  91
ANNAPOLIS      CLEAR     83  71  67 W6        29.90S
FORT MEADE*    CLEAR     73  72  94 SW8       29.94R

$$

MDZ012-015-019>023-230400-
MARYLAND EASTERN SHORE

CITY           SKY/WX    TMP DP  RH WIND       PRES   REMARKS
OCEAN CITY     CLEAR     81  76  84 SW10      29.92S
SALISBURY      CLEAR     78  76  93 SW7       29.92S
BAY BRIDGE AP* CLEAR     84  73  70 SW7       29.91S HX  91
CAMBRIDGE*     CLEAR     79  75  89 CALM      29.92S
EASTON*        CLEAR     85  74  71 W6        29.95S HX  92

$$

MDZ017>025-230400-
SOUTHERN MARYLAND

CITY           SKY/WX    TMP DP  RH WIND       PRES   REMARKS
PATUXENT RIVER PTCLDY    82  71  69 SW8       29.92S
ST INIGOES     PTCLDY    84  73  69 S6        29.93R HX  90
LEONARDTOWN*   PTCLDY    81  72  74 SW5       29.95S

$$

MDZ003>005-230400-
NORTH CENTRAL MARYLAND

CITY           SKY/WX    TMP DP  RH WIND       PRES   REMARKS
FREDERICK*     CLEAR     75  70  83 CALM      29.95S
HAGERSTOWN APT CLEAR     83  68  60 SW7       29.94S

$$

MDZ501>502-230400-
WESTERN MARYLAND

CITY           SKY/WX    TMP DP  RH WIND       PRES   REMARKS
OAKLAND*       CLEAR     70  68  94 W7        30.12R
CUMBERLAND*    CLEAR     82  70  65 W3        30.01S

$$

VAZ025>031-230400-
SHENANDOAH VALLEY

CITY           SKY/WX    TMP DP  RH WIND       PRES   REMARKS
WINCHESTER*    FAIR      81  70  69 SW5       29.97S
FRONT ROYAL*   FAIR      77  72  83 CALM      29.96S
LURAY*         FAIR      79  72  78 S6        30.00R
NEW MARKET*    FAIR     N/A N/A N/A CALM      29.99R
STAUNTON*      FAIR      74  68  83 CALM      30.05S
WAYNESBORO*    FAIR      74  68  80 CALM      30.05R

$$

WVZ021-048>050-054>055-230400-
EASTERN WEST VIRGINIA PANHANDLE

CITY           SKY/WX    TMP DP  RH WIND       PRES   REMARKS
MARTINSBURG    FAIR      79  68  69 S3        29.94S
PETERSBURG*    FAIR      74  71  91 CALM      30.01

$$

VAZ036>039-050-230400-
CENTRAL FOOTHILLS

CITY           SKY/WX    TMP DP  RH WIND       PRES   REMARKS
CHARLOTTESVILL FAIR      79  72  79 CALM      29.98R
CULPEPER*      FAIR      78  74  86 CALM      29.96R
ORANGE*          N/A     77  75  94 CALM      29.99R
GORDONSVILLE*  FAIR      75  73  96 CALM      29.97R
WARRENTON*     FAIR      79  69  71 CALM      29.95R

$$

VAZ055>057-230400-
NORTH AND CENTRAL PIEDMONT

CITY           SKY/WX    TMP DP  RH WIND       PRES   REMARKS
FREDERICKSBRG* FAIR      82  73  74 SW3       29.94R
STAFFORD*      FAIR      79  71  75 CALM      29.98S

$$

NCZ024-NYZ072-PAZ021-071-VAZ022-071-230400-
OTHER REGIONAL OBSERVATIONS

CITY           SKY/WX    TMP DP  RH WIND       PRES   REMARKS
NEW YORK CITY  CLEAR     85  70  60 VRB5G17   29.83S
PHILADELPHIA   PTCLDY    83  71  67 SW12      29.87S
PITTSBURGH     CLEAR     79  67  66 W7        30.00R
ROANOKE        FAIR      78  69  73 NW3       30.06R
RICHMOND       FAIR      79  74  84 S6        29.96R
RALEIGH        PTCLDY    75  70  84 SW5       30.02R

$$

ANZ530>537-230400-
MARINE OBSERVATIONS

STATION/POSITION TIME  TEMP    WIND        PRES
                       AIR SEA DIR/SP/G
                 (UTC) (F)     (DEG/KT/KT) (MB)
THOMAS PT LIGHT  0300   84 82  240/ 11/ 13 1014.2R
BALT KEY BRIDGE  0248          210/  8/  9   N/A
COVE POINT       0248          270/ 11/ 13   N/A
LEWISETTA        0248          240/  7/  8   N/A
SOLOMONS ISLAND  0248          230/  7/  8   N/A
PINEY POINT      0248          240/  6/  7   N/A

$$





USA.gov is the U.S. government's official web portal to all federal, state and local government web resources and services.